SCP
0 0 0 0 0 0 0 0 0 0 0 0 0 0 0 0 0 0 0 0 0 0 0 0 0 0 0 0 0 0 0 0 0 0 0 0 0 0 0 0 0 0 0 0
0 0 0 0 0 0 0 0 0 0 0 0 0 0 0 0 0 0 0 0 0 0 0 0 0 0 0 0 0 0 0 0 0 0 0 0 0 0 0 0 0 0 0 0
0 0 0 0 0 0 0 0 0 0 0 0 0 0 0 0 0 0 0 0 0 0 0 0 0 0 0 0 0 0 0 0 0 0 0 0 0 0 0 0 0 0 0 0
0 0 0 0 0 0 0 0 0 0 0 0 0 0 0 0 0 0 0 0 0 0 0 0 0 0 0 0 0 0 0 0 0 0 0 0 0 0 0 0 0 0 0 0
0 0 0 0 0 0 0 0 0 0 0 0 0 0 0 0 0 0 0 0 0 0 0 0 0 0 0 0 0 0 0 0 0 0 0 0 0 0 0 0 0 0 0 0
0 0 0 0 0 0 0 0 0 0 0 0 0 0 0 0 0 0 0 0 0 0 0 0 0 0 0 0 0 0 0 0 0 0 0 0 0 0 0 0 0 0 0 0
0 0 0 0 0 0 0 0 0 0 0 0 0 0 0 0 0 0 0 0 0 0 0 0 0 0 0 0 0 0 0 0 0 0 0 0 0 0 0 0 0 0 0 0
0 0 0 0 -0 0 0 0 0 0 0 0 0 0 0 0 0 0 0 0 0 0 0 0 0 0 0 0 0 0 0 0 0 0 0 0 0 0 0 0 0 0 0 0
0 0 0 0 0 0 0 0 0 0 0 0 0 0 0 0 0 0 0 0 0 0 0 0 0 0 0 0 0 0 0 0 0 0 0 0 0 0 0 0 0 0 0 0
0 0 0 0 0 0 0 0 0 0 0 0 0 0 0 0 0 0 0 0 0 0 0 0 0 0 0 0 0 0 0 0 0 0 0 0 0 0 0 0 0 0 0 0
0 0 0 0 0 0 0 0 0 0 0 0 0 0 0 0 0 0 0 0 0 0 0 0 0 0 0 0 0 0 0 0 0 0 0 0 0 0 0 0 0 0 0 0
0 0 0 0 0 0 0 0 0 0 0 0 0 0 0 0 0 0 0 0 0 0 0 0 0 0 0 0 0 0 0 0 0 0 0 0 0 0 0 0 0 0 0 0
0 0 0 0 0 0 0 0 0 0 0 0 0 0 0 0 0 0 0 0 0 0 0 0 0 0 0 0 0 0 0 0 0 0 0 0 0 0 0 0 0 0 0 0
0 0 0 0 0 0 0 0 0 0 0 0 0 0 0 0 0 0 0 0 0 0 0 0 0 0 0 0 0 0 0 0 0 0 0 0 0 0 0 0 0 0 0 0
0 0 0 0 0 0 0 0 0 0 0 0 0 0 0 0 0 0 0 0 0 0 0 0 0 0 0 0 0 0 0 0 0 0 0 0 0 0 0 0 0 0 0 0
0 0 0 0 0 0 0 0 0 0 0 0 0 0 0 0 0 0 0 0 0 0 0 0 0 0 0 0 0 0 0 0 0 0 0 0 0 0 0 0 0 0 0 0
0 0 0 0 0 0 0 0 0 0 0 0 0 0 0 0 0 0 0 0 0 0 0 0 0 0 0 0 0 0 0 0 0 0 0 0 0 0 0 0 0 0 0 0
0 0 0 0 0 0 0 0 0 0 0 0 0 0 0 0 0 0 0 0 0 0 0 0 0 0 0 0 0 0 0 0 0 0 0 0 0 0 0 0 0 0 0 0
0 0 0 0 0 0 0 0 0 0 0 0 0 0 0 0 0 0 0 0 0 0 0 0 0 0 0 0 0 0 0 0 0 0 0 0 0 0 0 0 0 0 0 0
0 0 0 0 0 0 0 0 0 0 0 0 0 0 0 0 0 0 0 0 0 0 0 0 0 0 0 0 0 0 0 0 0 0 0 0 0 0 0 0 0 0 0 0
0 0 0 0 0 0 0 0 0 0 0 0 0 0 0 0 0 0 0 0 0 0 0 0 0 0 0 0 0 0 0 0 0 0 0 0 0 0 0 0 0 0 0 0
0 0 0 0 0 0 0 0 0 0 0 0 0 0 0 0 0 0 0 0 0 0 0 0 0 0 0 0 0 0 0 0 0 0 0 0 0 0 0 0 0 0 0 0
0 0 0 0 0 0 0 0 0 0 0 0 0 0 0 0 0 0 0 0 0 0 0 0 0 0 0 0 0 0 0 0 0 0 0 0 0 0 0 0 0 0 0 0
0 0 0 0 0 0 0 0 0 0 0 0 0 0 0 0 0 0 0 0 0 0 0 0 0 0 0 0 0 0 0 0 0 0 0 0 0 0 0 0 0 0 0 0
0 0 0 0 0 0 0 0 0 0 0 0 0 0 0 0 0 0 0 0 0 0 0 0 0 0 0 0 0 0 0 0 0 0 0 0 0 0 0 0 0 0 0 0
0 0 0 0 0 0 0 0 0 0 0 0 0 0 0 0 0 0 0 0 0 0 0 0 0 0 0 0 0 0 0 0 0 0 0 0 0 0 0 0 0 0 0 0
0 0 0 0 0 0 0 0 0 0 0 0 0 0 0 0 0 0 0 0 0 0 0 0 0 0 0 0 0 0 0 0 0 0 0 0 0 0 0 0 0 0 0 0
Wind_Speed
2 3 3 3 4 6 6 4 4 6 7 6 5 5 6 6 7 8 9 9 9 9 8 8 8 7 7 6 6 6 6 5 5 4 4 3 3 2 1 2 2 2 2 3
1 2 2 3 5 4 5 5 5 7 6 5 5 5 6 6 7 8 8 8 8 8 8 8 7 7 6 6 6 6 5 5 4 4 3 3 2 1 1 1 1 2 2 3
1 2 3 2 4 3 3 4 3 4 4 4 6 6 5 6 6 6 6 6 6 6 6 6 6 6 6 6 5 5 5 4 4 3 3 3 2 1 1 0 1 1 2 3
2 3 2 1 2 3 3 4 4 5 4 5 6 5 6 6 6 6 6 5 5 5 5 5 5 5 5 5 5 5 4 4 4 4 3 2 2 1 1 1 1 2 2 2
1 1 1 3 2 1 1 2 2 3 5 5 4 4 5 6 6 6 5 5 4 4 4 4 5 5 5 4 4 4 5 4 4 4 3 3 2 2 2 2 2 2 2 3
2 2 1 2 3 2 1 1 2 3 4 3 1 1 2 4 5 5 5 4 4 4 4 5 5 5 5 5 5 5 5 5 4 4 3 3 3 3 2 2 3 2 3 3
2 2 0 3 1 0 0 1 2 3 3 3 3 3 3 4 4 4 4 4 4 4 4 4 5 5 5 5 5 5 5 5 5 4 4 4 3 2 2 2 3 3 4 4
1 2 2 3 2 1 2 2 3 4 4 5 5 4 4 4 3 3 3 4 4 4 4 4 4 4 5 5 5 5 6 6 6 5 4 3 3 3 3 3 3 4 4 5
1 2 2 2 3 3 3 3 3 4 4 4 3 3 3 2 2 3 3 4 4 4 4 4 5 5 5 5 6 6 6 6 6 6 5 4 4 4 3 3 4 4 4 5
3 2 3 3 3 3 3 3 4 4 4 3 3 2 2 1 2 2 3 3 4 4 4 5 4 4 4 5 5 6 6 6 6 5 5 4 4 3 3 4 4 4 5 5
4 3 2 3 4 4 4 4 4 4 4 3 3 2 2 1 2 2 2 2 3 3 4 5 5 5 4 4 5 5 6 6 6 5 5 5 4 4 5 5 6 6 5 5
5 4 4 3 5 5 5 4 4 4 3 3 3 2 2 1 1 2 2 3 3 4 4 5 5 5 5 4 4 5 5 5 5 5 5 5 5 5 7 8 12 13 12 10
2 2 3 4 5 5 5 4 4 3 3 3 2 2 1 1 1 2 3 3 3 4 5 5 5 5 5 4 4 5 5 6 5 5 5 5 5 5 6 7 9 12 13 14
4 4 3 3 4 4 5 5 5 4 3 3 2 2 1 1 2 2 3 3 4 5 5 5 5 6 5 4 4 5 5 6 6 5 5 5 5 6 6 6 7 6 8 12
4 3 3 5 6 5 5 5 4 3 3 2 2 1 0 1 3 3 3 4 4 5 5 6 6 6 5 5 5 6 5 5 5 5 5 5 5 5 6 6 6 7 6 7
5 4 5 5 6 5 5 4 4 3 2 2 1 0 1 2 3 4 4 4 5 6 6 6 6 6 6 5 6 5 5 9 8 5 5 5 5 5 6 6 6 6 6 6
8 6 6 6 6 5 5 4 3 3 2 2 1 0 1 2 3 4 5 4 5 5 6 6 7 6 6 6 6 5 5 7 10 7 5 5 5 6 6 6 6 6 6 8
6 6 6 6 6 6 5 4 3 3 2 1 1 1 1 3 4 5 5 6 6 6 6 6 6 6 6 6 5 5 5 5 5 6 6 5 6 5 6 6 7 7 6 7
6 6 6 6 6 6 5 4 3 2 2 2 1 1 2 3 4 5 5 6 6 7 6 5 10 7 6 8 8 5 5 6 6 6 6 9 8 6 6 6 7 7 6 6
6 7 7 7 6 6 5 4 3 3 2 1 0 2 3 3 4 5 5 5 4 4 5 7 7 6 7 7 10 5 6 7 7 7 6 6 6 6 6 6 7 6 6 6
7 7 7 6 6 5 5 4 3 2 1 1 1 2 3 4 4 4 5 5 5 5 6 10 7 6 6 8 10 6 6 7 7 7 7 6 6 6 6 6 6 6 6 5
6 6 6 6 6 5 3 3 3 2 1 1 1 2 3 4 5 5 5 4 5 9 7 5 5 9 12 13 6 6 7 7 7 6 6 6 6 6 6 6 5 5 5 5
5 5 6 5 5 4 3 3 2 1 0 1 2 2 3 4 4 4 6 4 5 10 8 6 11 16 18 9 6 6 7 7 7 6 6 5 6 6 6 6 5 5 5 4
5 5 5 4 4 4 3 1 1 0 1 2 2 2 3 3 3 3 4 9 12 13 7 11 17 17 15 6 6 6 6 6 6 6 5 5 5 5 5 5 5 5 4 5
6 5 5 5 4 2 2 1 0 1 1 1 2 2 2 2 3 4 4 6 11 12 7 10 16 16 9 6 6 6 6 6 7 6 5 5 5 5 5 4 4 4 4 4
4 4 4 3 3 2 2 1 0 0 1 2 2 2 2 2 3 4 4 5 8 11 8 6 7 9 6 6 6 7 6 7 7 6 5 5 5 5 5 5 5 4 4 4
4 4 3 3 2 2 1 1 0 1 1 2 3 3 3 3 3 4 5 5 5 6 6 6 6 6 6 6 6 6 6 6 5 5 5 5 5 5 5 5 4 4 4 3
Wind_Direction
31 10 18 21 17 23 30 28 71 95 96 94 88 84 78 72 68 63 54 48 45 42 40 39 35 32 32 30 24 24 32 34 32 29 34 39 42 51 82 116 140 151 159 167
6 25 14 24 23 32 33 40 77 92 84 93 93 84 74 69 66 61 54 47 42 39 35 32 27 23 23 21 17 19 26 24 21 24 27 28 27 33 67 102 136 157 174 174
351 337 325 25 17 27 57 47 52 78 94 98 88 75 72 70 68 65 58 51 44 37 31 28 21 17 13 9 11 16 20 17 14 13 9 1 356 4 1 244 191 194 195 189
339 359 31 96 41 30 64 60 58 87 92 84 86 79 71 65 68 62 52 47 40 32 25 21 20 16 6 5 6 6 11 10 3 356 347 338 331 315 295 276 239 228 219 212
344 310 203 138 115 32 45 69 69 100 102 94 100 95 70 56 60 62 51 44 37 29 22 17 15 6 1 4 5 5 4 357 346 335 321 308 295 284 277 266 256 243 231 221
332 334 349 110 104 34 11 118 86 91 109 114 101 91 91 65 62 53 45 34 22 15 17 15 5 360 360 355 359 358 350 338 328 317 306 293 281 273 267 258 254 246 245 233
284 290 346 105 130 274 119 160 99 85 95 95 76 89 106 80 64 54 44 27 16 12 9 3 354 355 351 347 345 336 330 324 319 308 294 283 276 269 265 260 255 250 252 247
220 243 239 143 152 119 122 110 94 84 84 91 92 89 80 72 61 44 26 16 10 2 352 349 352 352 345 339 332 331 326 320 315 309 301 297 285 273 262 255 253 252 252 253
240 194 140 148 115 99 101 111 99 94 92 102 105 100 84 63 47 35 22 10 3 354 345 348 354 356 340 330 332 329 323 315 310 309 303 293 277 269 265 256 253 254 249 250
284 228 170 163 135 123 107 110 101 101 101 103 103 100 91 68 42 27 14 8 359 350 341 337 340 337 326 323 326 322 314 310 306 304 299 292 281 268 261 259 259 258 257 258
254 238 172 185 168 148 131 118 108 99 94 92 93 89 72 48 28 15 2 356 348 335 325 322 324 321 324 325 327 319 311 309 307 303 301 296 285 271 267 258 261 266 259 253
222 208 178 181 164 147 143 145 138 129 112 95 94 82 54 33 18 0 342 333 328 323 319 316 317 317 319 322 322 315 311 311 307 303 301 298 297 294 280 275 283 280 274 270
175 97 98 111 126 134 140 137 128 125 126 116 95 85 64 15 350 332 322 322 321 317 312 310 310 309 313 319 316 308 303 304 304 303 301 299 297 296 299 297 285 283 283 280
130 119 128 143 140 130 122 118 114 111 107 107 101 85 51 339 319 313 313 317 316 311 307 306 307 306 310 313 309 303 302 300 300 299 299 297 295 294 293 295 299 296 287 284
165 157 144 132 126 124 120 122 126 132 127 117 112 109 337 310 305 307 314 317 314 307 305 308 308 307 315 317 310 302 301 297 296 296 297 296 294 292 291 289 289 293 296 294
157 139 130 138 147 144 143 150 157 162 154 148 147 207 309 308 307 310 312 313 310 305 305 306 303 305 313 313 307 301 296 298 299 296 293 293 291 291 292 291 291 292 292 293
153 169 172 172 168 163 163 161 157 151 142 143 153 42 338 317 309 307 308 310 305 299 300 302 300 306 311 307 303 298 296 298 300 298 288 287 288 289 289 290 289 290 290 292
169 167 164 163 161 157 154 140 127 122 123 114 83 26 315 304 303 307 314 318 314 307 302 299 304 314 312 309 306 298 295 294 294 293 293 291 290 286 286 286 287 288 290 294
136 136 135 133 134 134 132 128 123 115 105 98 89 288 291 297 302 307 313 314 310 308 310 319 328 327 312 308 310 297 296 296 295 292 290 293 296 289 286 285 287 287 288 290
119 118 115 110 106 112 119 118 114 108 102 97 331 299 302 306 311 312 311 301 288 289 308 321 324 315 310 306 311 302 298 296 295 294 292 288 290 292 290 289 290 291 289 289
125 120 118 115 108 104 109 113 114 114 102 84 298 298 304 310 313 311 308 302 301 317 326 326 322 310 308 311 314 305 298 296 294 292 292 291 291 292 292 294 294 296 296 295
128 125 125 122 118 111 104 101 101 97 73 358 315 311 311 310 310 304 289 283 304 322 326 314 310 311 315 317 307 300 298 296 294 291 289 291 293 294 295 297 298 300 299 297
124 123 123 123 123 120 108 98 90 87 347 301 299 300 300 300 302 305 307 313 320 320 322 307 311 315 319 319 305 301 300 299 297 294 292 292 294 296 297 297 297 298 297 298
121 119 116 111 109 110 113 104 80 1 284 285 282 283 290 298 299 288 294 314 320 320 316 312 318 320 324 319 307 304 303 303 301 297 295 297 297 296 295 296 297 300 301 301
124 121 120 122 123 127 126 112 76 301 302 299 302 305 293 277 289 306 311 311 317 321 316 318 321 324 325 311 309 307 306 303 304 307 303 302 300 300 299 299 300 300 299 299
127 128 128 126 122 118 116 120 162 300 317 315 313 312 312 310 305 306 309 311 312 318 318 313 314 318 315 312 310 309 308 310 313 314 308 305 303 302 302 303 304 302 301 301
121 120 121 119 113 113 118 134 173 290 309 303 306 310 314 315 314 316 315 312 312 313 311 312 313 312 311 311 310 309 308 309 310 309 307 306 305 304 305 305 304 304 304 303